Location: Bron Breck
(40.6655°N, 111.8083°W)
Time: 13:21:08
(UTC+00:00)

N. Korean satellite - Visible Passes

Search period start: 28 February 2021 00:00
Search period end: 10 March 2021 00:00
Orbit: 451 x 503 km, 97.2° (Epoch: 27 February)

Date Brightness Start Highest point End Pass type
(mag) Time Alt. Az. Time Alt. Az. Time Alt. Az.
28 Feb 6.4 13:04:45 10° N 13:08:15 65° WNW 13:11:46 10° SSW visible
01 Mar 7.4 12:38:04 10° NNE 12:41:31 51° E 12:45:00 10° S visible
02 Mar 9.1 12:11:49 10° NE 12:14:42 23° E 12:17:35 10° SSE visible
03 Mar 10.0 11:46:53 10° ENE 11:47:47 11° E 11:48:41 10° ESE visible
03 Mar 6.9 13:17:54 10° N 13:21:17 42° WNW 13:24:41 10° SW visible
04 Mar 6.6 12:51:02 10° NNE 12:54:35 81° ESE 12:58:11 10° S visible
05 Mar 8.4 12:24:32 10° NNE 12:27:48 34° E 12:31:06 10° SSE visible
06 Mar 9.7 11:58:40 10° NE 12:00:56 16° E 12:03:13 10° SE visible
07 Mar 6.5 13:04:03 10° N 13:07:36 66° WNW 13:11:12 10° SSW visible
08 Mar 7.5 12:37:20 10° NNE 12:40:51 51° E 12:44:24 10° S visible
09 Mar 9.1 12:11:05 10° NE 12:14:01 23° E 12:16:58 10° SSE visible
